Date String (YYYY-MM-DD hh:mm:ss) UTC,Instrument flags,Ambient pressure (hPa),Sample flow (lpm),Bypass flow (lpm),Sample temperature (°C),Ambient temperature (°C),ASC tube jacket temperature (°C),LED temperature (°C),Box temperature (°C),Sample RH (%),Span deviation,Mass concentration (μg/m³),Mass concentration (μg/m³),Mass concentration (μg/m³)
DateTimeUTC,F1_M11,P_M11,Q1_M11,Q2_M11,T1_M11,T2_M11,T3_M11,T4_M11,T5_M11,U1_M11,ZSPAN_M11,X0_M11,X2_M11,X1_M11
2022-12-01 08:00:00,,0818.9,4.99,0.00,22.0,21.2,00.0,30.8,23.8,09.6,0000.0,0003.19,0001.45,0001.08
2022-12-01 08:01:00,,0818.8,5.00,0.00,22.0,21.0,00.0,30.8,23.7,09.9,0000.0,0003.09,0001.42,0001.06
2022-12-01 08:02:00,,0818.7,5.00,0.00,22.0,20.8,00.0,30.9,23.8,10.6,0000.0,0002.52,0001.42,0001.06
2022-12-01 08:03:00,,0818.7,5.00,0.00,22.0,20.7,00.0,30.9,23.7,09.7,0000.0,0002.49,0001.45,0001.05
2022-12-01 08:04:00,,0818.7,5.00,0.00,22.0,20.5,00.0,30.9,23.6,09.9,0000.0,0002.45,0001.43,0001.04
2022-12-01 08:05:00,,0818.8,5.00,0.00,21.9,20.5,00.0,30.8,23.6,10.0,0000.0,0002.44,0001.44,0001.04
2022-12-01 08:06:00,,0818.7,5.00,0.00,21.9,20.4,00.0,30.8,23.5,09.8,0000.0,0002.38,0001.41,0001.03
2022-12-01 08:07:00,,0818.8,5.00,0.00,21.9,20.4,00.0,30.8,23.5,09.7,0000.0,0002.77,0001.41,0001.01
2022-12-01 08:08:00,,0818.7,5.00,0.00,21.9,20.5,00.0,30.8,23.5,09.7,0000.0,0003.84,0001.45,0001.01
2022-12-01 08:09:00,,0818.7,5.01,0.00,21.9,21.5,00.0,30.7,23.8,09.6,0000.0,0003.90,0001.47,0001.03
2022-12-01 08:10:00,,0818.8,5.00,0.00,22.0,22.4,00.0,30.8,24.0,09.6,0000.0,0003.85,0001.45,0001.03
2022-12-01 08:11:00,,0818.9,4.98,0.00,22.1,22.2,00.0,30.8,24.1,09.4,0000.0,0003.77,0001.46,0001.03
2022-12-01 08:12:00,,0819.0,5.02,0.00,22.1,21.8,00.0,30.9,24.0,09.3,0000.0,0003.77,0001.48,0001.03
2022-12-01 08:13:00,,0818.9,5.00,0.00,22.1,21.5,00.0,30.9,23.9,09.5,0000.0,0003.76,0001.47,0001.03
2022-12-01 08:14:00,,0819.0,4.99,0.00,22.1,21.3,00.0,31.0,23.9,09.7,0000.0,0003.91,0001.48,0001.03
2022-12-01 08:15:00,,0819.0,5.00,0.00,22.1,21.1,00.0,31.0,23.9,09.8,0000.0,0004.13,0001.52,0001.04
2022-12-01 08:16:00,,0819.0,5.01,0.00,22.1,21.0,00.0,31.0,23.8,09.7,0000.0,0004.32,0001.61,0001.10
2022-12-01 08:17:00,,0819.0,5.01,0.00,22.1,20.9,00.0,31.0,23.8,09.6,0000.0,0004.40,0001.65,0001.11
2022-12-01 08:18:00,,0819.0,5.00,0.00,22.1,20.8,00.0,31.0,23.8,09.6,0000.0,0004.15,0001.68,0001.13
2022-12-01 08:19:00,,0818.9,5.00,0.00,22.0,20.7,00.0,31.0,23.7,09.6,0000.0,0003.12,0001.66,0001.14
2022-12-01 08:20:00,,0819.0,4.99,0.00,22.0,20.6,00.0,31.0,23.7,09.5,0000.0,0003.08,0001.66,0001.16
2022-12-01 08:21:00,,0818.9,5.00,0.00,22.0,20.4,00.0,31.0,23.6,09.7,0000.0,0004.91,0003.19,0002.72
2022-12-01 08:22:00,,0818.9,4.99,0.00,21.9,20.2,00.0,31.0,23.6,10.0,0000.0,0006.67,0004.25,0003.91
2022-12-01 08:23:00,,0818.9,5.00,0.00,21.9,20.1,00.0,30.9,23.6,09.9,0000.0,0008.05,0004.64,0004.29
2022-12-01 08:24:00,,0819.0,5.02,0.00,21.9,20.8,00.0,30.9,23.7,09.8,0000.0,0009.01,0004.89,0004.54
2022-12-01 08:25:00,,0819.0,5.00,0.00,22.0,22.0,00.0,30.8,24.0,09.6,0000.0,0009.44,0005.38,0004.98
2022-12-01 08:26:00,,0818.9,5.00,0.00,22.1,22.3,00.0,30.9,24.1,09.7,0000.0,0011.12,0007.10,0006.70
2022-12-01 08:27:00,,0818.9,4.98,0.00,22.1,21.7,00.0,30.9,24.0,09.8,0000.0,0012.74,0008.68,0008.18
2022-12-01 08:28:00,,0819.0,5.01,0.00,22.1,21.2,00.0,30.9,23.9,09.8,0000.0,0013.53,0009.38,0008.86
2022-12-01 08:29:00,,0818.9,5.01,0.00,22.1,21.0,00.0,31.0,23.8,09.7,0000.0,0013.70,0009.60,0009.09
2022-12-01 08:30:00,,0818.8,5.01,0.00,22.0,20.7,00.0,31.0,23.8,09.5,0000.0,0013.77,0009.67,0009.16
2022-12-01 08:31:00,,0818.9,4.99,0.00,22.0,20.6,00.0,31.0,23.7,09.4,0000.0,0013.86,0009.74,0009.21
2022-12-01 08:32:00,,0819.0,4.99,0.00,22.0,20.5,00.0,31.0,23.7,09.8,0000.0,0013.57,0009.25,0008.75
2022-12-01 08:33:00,,0819.0,5.01,0.00,21.9,20.3,00.0,31.0,23.6,10.0,0000.0,0014.46,0009.42,0008.85
2022-12-01 08:34:00,,0818.9,5.01,0.00,21.9,20.3,00.0,30.9,23.6,10.0,0000.0,0014.94,0010.33,0009.73
2022-12-01 08:35:00,,0819.0,5.00,0.00,21.9,20.3,00.0,30.9,23.6,09.9,0000.0,0015.19,0011.41,0010.80
2022-12-01 08:36:00,,0819.0,4.99,0.00,21.9,20.3,00.0,30.9,23.6,10.0,0000.0,0016.18,0012.36,0011.76
2022-12-01 08:37:00,,0819.0,5.00,0.00,21.9,20.4,00.0,30.9,23.6,10.0,0000.0,0016.31,0012.26,0011.64
2022-12-01 08:38:00,,0818.9,5.01,0.00,21.9,20.3,00.0,30.9,23.6,10.0,0000.0,0016.60,0012.00,0011.43
2022-12-01 08:39:00,,0819.0,5.00,0.00,21.8,20.4,00.0,30.9,23.6,10.0,-001.4,0017.28,0012.68,0012.08
2022-12-01 08:40:00,,0818.8,5.00,0.00,21.9,21.5,00.0,30.8,23.8,09.9,-001.3,0018.19,0013.58,0012.95
2022-12-01 08:41:00,,0818.8,4.99,0.00,22.0,22.3,00.0,30.8,24.0,09.8,-001.0,0019.12,0014.46,0013.83
2022-12-01 08:42:00,,0818.8,4.99,0.00,22.1,22.2,00.0,30.8,24.1,09.7,-001.2,0020.18,0015.29,0014.65
2022-12-01 08:43:00,,0818.9,5.01,0.00,22.1,21.8,00.0,30.9,24.0,09.8,-001.0,0020.97,0016.05,0015.43
2022-12-01 08:44:00,,0819.0,5.01,0.00,22.1,21.5,00.0,30.9,24.0,09.8,-000.7,0020.00,0015.73,0015.15
2022-12-01 08:45:00,,0819.1,4.99,0.00,22.1,21.0,00.0,30.9,23.8,09.8,-000.4,0019.70,0015.53,0014.96
2022-12-01 08:46:00,,0819.0,4.98,0.00,22.0,20.4,00.0,30.9,23.6,09.8,-000.9,0020.00,0015.81,0015.21
2022-12-01 08:47:00,,0819.0,5.01,0.00,21.9,19.9,00.0,30.9,23.4,09.9,-001.1,0020.18,0015.96,0015.40
2022-12-01 08:48:00,,0819.1,5.01,0.00,21.8,19.6,00.0,30.9,23.3,09.9,-001.4,0020.04,0015.84,0015.30
2022-12-01 08:49:00,,0818.9,4.99,0.00,21.8,19.4,00.0,30.9,23.3,10.0,-001.5,0019.98,0015.64,0015.10
2022-12-01 08:50:00,,0818.9,4.99,0.00,21.7,19.4,00.0,30.8,23.3,10.0,-001.3,0020.30,0015.19,0014.68
2022-12-01 08:51:00,,0819.0,5.01,0.00,21.6,19.5,00.0,30.8,23.2,10.0,-001.4,0020.12,0015.06,0014.56
2022-12-01 08:52:00,,0819.0,5.01,0.00,21.7,20.5,00.0,30.7,23.4,10.0,-001.6,0020.20,0015.22,0014.73
2022-12-01 08:53:00,,0818.9,4.99,0.00,21.8,21.6,00.0,30.7,23.7,09.8,-001.3,0019.87,0015.11,0014.62
2022-12-01 08:54:00,,0819.1,4.98,0.00,21.9,21.7,00.0,30.7,23.8,09.8,-001.3,0019.54,0014.90,0014.40
2022-12-01 08:55:00,,0819.1,5.00,0.00,21.9,21.4,00.0,30.8,23.8,09.9,-001.5,0019.47,0015.04,0014.55
2022-12-01 08:56:00,,0819.0,5.00,0.00,21.9,21.1,00.0,30.8,23.7,09.9,-001.5,0019.26,0014.81,0014.36
2022-12-01 08:57:00,,0819.0,5.01,0.00,21.9,20.9,00.0,30.8,23.7,09.9,-001.3,0018.81,0014.06,0013.65
2022-12-01 08:58:00,,0819.0,5.00,0.00,21.9,20.7,00.0,30.8,23.6,09.9,-001.2,0018.03,0013.34,0012.92
2022-12-01 08:59:00,,0819.0,4.99,0.00,21.9,20.7,00.0,30.8,23.7,09.9,-001.0,0017.20,0012.79,0012.40
